Flag for Germany Weather past 2 weeks in Dormagen, North Rhine-Westphalia, Germany

48 °F

Light rain. Passing clouds.

Feels Like: 44 °F
Forecast: 52 / 56 °F
Wind: 10 mph from West

Location: Duesseldorf

Current Time: Nov 30, 2015 at 6:42:12 AM

Latest Report: Nov 30, 2015 at 5:50 AM

Visibility: N/A

Pressure: 30.04 "Hg

Humidity: 71%

Dew point: 39 °F

Location of DormagenLocation

Historic Weather in Dormagen — Graph


Dormagen temperature yesterday

Maximum temperature yesterday: 54 °F (at 6:20 PM)
Minimum temperature yesterday: 45 °F (at 12:20 AM)
Average temperature yesterday: 49 °F

Past Weeks' High & Low Weather Summary

High61 °F (Nov 15, 11:50 AM)100% (Nov 17, 3:20 AM)30.27 "Hg (Nov 17, 3:20 AM)
Low32 °F (Nov 22, 7:20 AM)59% (Nov 18, 3:20 AM)29.39 "Hg (Nov 21, 7:20 AM)
Average46 °F83%29.86 "Hg
* Reported Nov 15 5:20 AM — Nov 30 5:20 AM, Dormagen, Weather by CustomWeather, © 2015

Note: Actual official high and low records may vary slightly from our data, if they occured in-between our weather recording intervals... More about our weather records


Dormagen weather history for previous 24 hours

Time TempWeatherWind HumidityBarometerVisibility
5:20 AM
Mon, Nov 30
48 °FClear.15 mph71%30.01 "Hg10 mi
4:50 AM48 °FPartly cloudy.12 mph71%30.01 "HgN/A
4:20 AM48 °FPartly cloudy.13 mph76%29.98 "HgN/A
3:50 AM48 °FClear.13 mph76%29.98 "Hg10 mi
3:20 AM48 °FPassing clouds.15 mph76%29.95 "HgN/A
2:50 AM50 °FMostly cloudy.15 mph76%29.95 "HgN/A
2:20 AM50 °FPartly cloudy.16 mph82%29.92 "HgN/A
1:50 AM50 °FClear.16 mph82%29.89 "Hg10 mi
1:20 AM48 °FClear.13 mph87%29.89 "Hg10 mi
12:50 AM48 °FPassing clouds.15 mph94%29.86 "HgN/A
11:50 PM
Sun, Nov 29
50 °FLight rain. Passing clouds.23 mph94%29.86 "HgN/A
11:20 PM52 °FLight rain. Partly cloudy.25 mph88%29.80 "HgN/A
10:50 PM52 °FRain. Passing clouds.32 mph88%29.80 "Hg6 mi
10:20 PM52 °FLight rain. Partly cloudy.33 mph88%29.77 "HgN/A
9:50 PM52 °FLight rain. Passing clouds.32 mph88%29.77 "HgN/A
9:20 PM52 °FLight rain. Passing clouds.33 mph88%29.77 "HgN/A
8:50 PM52 °FLight rain. Passing clouds.33 mph88%29.77 "HgN/A
8:20 PM52 °FLight rain. Partly cloudy.30 mph88%29.77 "HgN/A
7:50 PM52 °FLight rain. Passing clouds.30 mph88%29.77 "HgN/A
7:20 PM52 °FLight rain. Partly cloudy.29 mph88%29.77 "HgN/A
6:50 PM52 °FLight rain. Passing clouds.29 mph82%29.77 "HgN/A
6:20 PM54 °FPassing clouds.26 mph77%29.77 "HgN/A
5:50 PM52 °FPartly cloudy.25 mph82%29.77 "HgN/A
5:20 PM52 °FLight rain. Passing clouds.24 mph82%29.77 "HgN/A
4:50 PM52 °FPartly cloudy.24 mph82%29.77 "HgN/A
4:20 PM52 °FLight rain. Partly sunny.23 mph82%29.77 "HgN/A
3:50 PM52 °FPartly sunny.26 mph82%29.77 "HgN/A
3:20 PM52 °FLight rain. Partly sunny.24 mph82%29.77 "HgN/A
2:50 PM52 °FLight rain. Broken clouds.24 mph88%29.77 "HgN/A
2:20 PM50 °FBroken clouds.22 mph94%29.77 "HgN/A
1:50 PM50 °FLight rain. Partly sunny.22 mph94%29.77 "Hg5 mi
1:20 PM50 °FLight rain. Partly sunny.18 mph88%29.80 "HgN/A
12:50 PM50 °FBroken clouds.18 mph88%29.80 "HgN/A
12:20 PM50 °FSprinkles. Partly sunny.22 mph88%29.83 "HgN/A
11:50 AM52 °FMostly cloudy.20 mph77%29.83 "HgN/A
11:20 AM52 °FMostly cloudy.20 mph77%29.83 "HgN/A
10:20 AM50 °FMore clouds than sun.20 mph82%29.80 "HgN/A
9:50 AM48 °FSprinkles. Broken clouds.22 mph87%29.80 "HgN/A
9:20 AM48 °FSprinkles. Broken clouds.20 mph87%29.80 "HgN/A
8:50 AM48 °FSprinkles. Partly sunny.21 mph87%29.80 "HgN/A
8:20 AM46 °FSprinkles. Mostly cloudy.17 mph93%29.80 "HgN/A
7:50 AM48 °FMostly cloudy.18 mph82%29.80 "HgN/A
7:20 AM48 °FMostly cloudy.20 mph82%29.80 "HgN/A
6:20 AM46 °FPartly cloudy.21 mph87%29.80 "HgN/A
Weather by CustomWeather, © 2015

See weather overviewHow to use our weather pages